Japanese version Home page |
Updated on May 8, 2015 |
Profile
|
Orbital ElementsEpoch 2014 Apr. 13.0 TT = JDT 2456760.5 T 2014 Apr. 22.46061 TT MPCW q 1.9541931 (2000.0) P Q n 0.15387460 Peri. 207.39700 +0.97531140 +0.10340956 a 3.4489859 Node 144.91854 -0.08106146 +0.98954966 e 0.4334007 Incl. 19.84658 -0.20541838 +0.10048844 P 6.41 From 37 observations 2001 Aug. 18-2015 Jan. 15, mean residual 0".5.
|
Magnitudes Graphm1 = 14.5 + 5 log d + 10.0 log r
|
The orbital elements are published on M.P.E.C. 2015-B177.
|